默认 日期 大小 文件数 浏览量 最新下载 xml
temple磁力链接相关资源由用户搜索指令自动获取,结果来源于网络,本站不存储任何资料,亦不承担任何责任,请于24小时内删除,搜索到8517个磁力,显示前4000条数据,用时4ms。
    {"E-Clip - Live @ The Dance Temple (Boom Festival, Portugal, 2014-08-06).cue": 1362, "E-Clip - Live @ The Dance Temple (Boom Festival, Portugal, 2014-08-06).mp3": 159264391}
创建时间: 2018-12-09 18:51:08 大小:151.89 MB 文件数量:2 热度:6 最近下载:2022-04-23 06:35:40
    ... Irish 01 - Bad Debts - Peter Temple.mobi": 381316, "Peter_Temple_-_Jack_Irish_02_-_Black_Tide ... Irish 02 - Black Tide - Peter Temple.mobi": 442097}
创建时间: 2018-12-09 20:49:46 大小:1.36 MB 文件数量:5 热度:9 最近下载:2025-07-31 04:07:06
    {"teenfidelity.e346.chloe.temple.tight.jeans[N1C].mp4": 4032001779}
创建时间: 2018-12-09 21:38:24 大小:3.76 GB 文件数量:1 热度:48 最近下载:2025-08-08 20:14:03
    {"pic001.jpg": 248606, "pic002.jpg": 217556, "pic003.jpg": 232054, "pic004.jpg": 243088, "pic005.jpg": 253989, "pic006.jpg": 260202, "pic007.jpg": 255847, "pic008.jpg": 228321, "pic009.jpg": 234768, "pic010.jpg": 203792, "pic011.jpg": 219267, "pic012.jpg": ...
创建时间: 2018-12-10 02:19:16 大小:72.25 MB 文件数量:284 热度:11 最近下载:2025-02-17 20:58:04
    ... - Plush.m4a": 7622826, "Stone Temple Pilots - 07 - Creep.m4a": ... 8182350, "Stone Temple Pilots - 01 - Vasoline.m4a": ... Show.m4a": 5975983, "Stone Temple Pilots - 10 - Interstate Love ... Song.m4a": 4719972, "Stone Temple Pilots - 15 - Plush ( ...
创建时间: 2018-12-10 02:31:51 大小:79.11 MB 文件数量:15 热度:11 最近下载:2025-09-19 04:23:05
    ... Messiah.avi": 55457562, "Solomon's Temple.nfo": 1878, "02 - The Calendar ...
创建时间: 2018-12-10 03:43:45 大小:4.68 GB 文件数量:74 热度:6 最近下载:2022-04-23 06:03:24
    {"Indiana.Jones.and.the.Temple.of.Doom.(1984).1080p..10-bit.x265.AAC.5.1 Qman[UTR].mkv": 10479293513}
创建时间: 2018-12-10 05:41:12 大小:9.76 GB 文件数量:1 热度:8 最近下载:2025-02-25 09:55:01
    ... 134165662, "Offering- Live at Temple University CD1.cue": 409, " ... Coltrane - Offering- Live at Temple University CD1.log": 5074, ... 121333435, "Offering- Live at Temple University CD2.cue": 550, " ... Coltrane - Offering- Live at Temple University CD2.m3u": 65}, " ...
创建时间: 2018-12-10 07:39:11 大小:567.78 MB 文件数量:35 热度:6 最近下载:2024-07-18 07:48:02
    {"Nlt.png": 54444, "hopy.gif": 6183, "cd tekst.txt": 648, "01 - Intro.mp3": 2981656, "13 - Speed.mp3": 10149657, "02 - How Long.mp3": 9550935, "07 - With You.mp3": 11505939, "04 - Hanging On.mp3": 9746335, "09 - Storming In.mp3": 11408770, "michael ...
创建时间: 2018-12-10 12:55:43 大小:143.25 MB 文件数量:22 热度:9 最近下载:2024-10-05 02:01:49
    {"bin": {"cz": {"Launcher.exe": 11505904, "IGT Slots Aztec Manual.pdf": 948700}, "en": {"Launcher.exe": 11505904, "IGT Slots Aztec Manual.pdf": 948700}, "hu": {"Launcher.exe": 11505904, "IGT Slots Aztec Manual.pdf": 948700}, "pl": {"Readme.txt": 7191, " ...
创建时间: 2018-12-10 14:23:44 大小:429.33 MB 文件数量:186 热度:10 最近下载:2024-04-06 22:10:02
    ... .temple.grandin-taste.srt": 93692, "spanish.temple.grandin-taste.srt": 186506, "subtitles.temple ... Now.txt": 502, "temple.grandin-taste.avi": 726976512, "temple.grandin-taste.nfo ...
创建时间: 2018-12-10 15:32:14 大小:693.82 MB 文件数量:8 热度:6 最近下载:2022-04-23 06:37:45
    {"RARBG.txt": 31, "Temple.2017.1080p.AMZN.WEB-DL.DDP5.1.H.264-NTG.mkv": 2709742370}
创建时间: 2018-12-10 15:54:25 大小:2.52 GB 文件数量:2 热度:4 最近下载:2022-04-23 06:27:28
    ... of Days.mp3": 11044176, "Cryonic Temple.jpg": 91861, "12 Under Attack ... the Sky.mp3": 14292776, "08 Temple of Cryonics.mp3": 13676286, "02 ...
创建时间: 2018-12-10 19:46:59 大小:145.82 MB 文件数量:15 热度:5 最近下载:2022-04-23 06:07:24
    {"RARBG.txt": 30, "teenfidelity.e346.chloe.temple.tight.jeans.4k.mp4": 11951208091, "teenfidelity.e346.chloe.temple.tight.jeans.4k.nfo": 5199}
创建时间: 2018-12-10 22:08:11 大小:11.13 GB 文件数量:3 热度:156 最近下载:2025-10-12 18:22:01
    {"PS4_Lara_Croft_and_the_Temple_of_Osiris_CUSA00806_01_Game_Full_psgames.by.pkg": 2346123264, "PS4_Lara_Croft_and_the_Temple_of_Osiris_CUSA00806_02_Patch_v1.02_psgames.by.pkg": 77594624}
创建时间: 2018-12-10 23:11:24 大小:2.26 GB 文件数量:2 热度:8 最近下载:2025-04-20 01:41:02
    {"cover.jpg": 117991, "09. Maya.mp3": 17882593, "05. Take Me.mp3": 7283154, "06. Runaway.mp3": 12373897, "02. Sidewinder.mp3": 10073038, "03. City Lights.mp3": 22142656, "01. Dreamcatcher.mp3": 22826021, "08. Skyline Rising.mp3": 14027985, "04. Exit City ...
创建时间: 2018-12-11 00:14:17 大小:136.22 MB 文件数量:10 热度:6 最近下载:2022-04-23 07:04:32
    {"folder.jpg": 644838, "04. Cry Cry.mp3": 8685568, "05. Tomorrow.mp3": 8787968, "01. Out Of Time.mp3": 7723008, "02. Black Heart.mp3": 7944192, "03. Same On The Inside.mp3": 8171548}
创建时间: 2018-12-11 03:04:31 大小:40.01 MB 文件数量:6 热度:8 最近下载:2025-03-19 13:54:06
    {"teenfidelity.e346.chloe.temple.tight.jeans.mp4": 507749599}
创建时间: 2018-12-11 03:42:26 大小:484.23 MB 文件数量:1 热度:11 最近下载:2025-08-04 14:29:06
    {"VIDEO_TS.BUP": 20480, "VIDEO_TS.IFO": 20480, "VIDEO_TS.VOB": 593920, "VTS_01_0.BUP": 110592, "VTS_01_0.IFO": 110592, "VTS_01_0.VOB": 1413120, "VTS_01_1.VOB": 1073739776, "VTS_01_2.VOB": 1073739776, "VTS_01_3.VOB": 1073739776, "VTS_01_4.VOB": 1073739776, ...
创建时间: 2018-12-11 11:34:29 大小:7.73 GB 文件数量:22 热度:16 最近下载:2025-09-15 10:37:03
    ... & Dr.Zeus.mp3": 7496343, "13. Temple of Brahma (feat. LayG & Moldenhauer ...
创建时间: 2018-12-11 12:26:27 大小:196.42 MB 文件数量:19 热度:9 最近下载:2025-05-23 10:52:02